Starlink 5842

operational
NORAD ID: 56491 Int'l Des: 2023-064 Owner: SPXS Country: US Constellation: starlink
LEOCIRCULAR

About Starlink 5842

Description loading...

Live Position

Loading 3D Globe...

Upcoming Passes

Altitude History

Altitude vs Time

uPlot chart will show altitude changes over time

Two-Line Element Set

1 56491U 23064AV 25257.51758980 .00000795 00000-0 74372-4 0 9992
2 56491 69.9999 188.6475 0002581 271.4087 88.6777 14.98332051129845
Epoch: Sep 14, 2025 • Age: 21 hours

Current Status

Altitude 582.4 km
Velocity 7.57 km/s
Sub-Earth Point 56.12°N, 167.48°W
Launch Date May 10, 2023
Age 2.3 years
Type internet

Technical Details

Classification Payload
Mass 305.00 kg
Dry Mass 290.00 kg
Total Mass 305.00 kg
Length 0.20 m
Diameter 2.80 m
Span 9.00 m
Shape Box + pan
Manufacturer SPXS
Bus Type Starlink
Phase Status In Orbit
Owner/State SPXS/US

Large Constellations

Loading constellations...